{"data":{"norad_id":56131,"intl_designator":"2023-046AR","name":"STARLINK-6120","alt_names":[],"object_type":"PAYLOAD","status":"ACTIVE","operator":null,"country":"US","launch_date":"2023-03-29","launch_site_code":"AFETR","launch_vehicle":null,"mission":null,"orbit_class":"UNKNOWN","rcs_meters":null,"size_class":null,"mass_kg":null,"dimensions":null,"purposes":["comms"],"wikipedia_slug":null,"has_3d_model":false,"image_url":null,"decayed_at":null,"tle_current":{"epoch":"2026-09-19T23:31:13.268352Z","epoch_age_seconds":153584,"freshness":"FRESH","line1":"1 56131U 23046AR  26262.98001468  .00000062  00000+0  11796-4 0  9990","line2":"2 56131  43.0026 129.7887 0001375 254.9962 105.0737 15.27576831191917","mean_motion":15.27576831,"eccentricity":0.0001375,"inclination_deg":43.0026,"raan_deg":129.7887,"arg_perigee_deg":254.9962,"mean_anomaly_deg":105.0737,"bstar":1.1796e-5,"rev_number":19191,"period_min":94.266944272605,"perigee_km":482.11517078914,"apogee_km":484.00199957506,"semimajor_km":6861.1955851821,"source":"CELESTRAK","updated_at":"2026-09-21T09:00:33.388093Z"}}}